This demonstration page uses our WeatherBlox Daily Observations layout. Learn more.

Left ArrowRight Arrow

39.12711, -84.51439

Hourly Observations for November 8, 2020

Temp ( °F °C ) Dew Point ( °F °C ) Humidity (%) Winds ( mph kmh ) Pressure ( in mb ) Visibility ( mi km ) Precip ( " mm )
12:53 am 00:53 Clear with Mist and Fog 44 6.7 42 5.6 93 93 Calm 30.27 1025 5 8 0.00 0.00
1:53 am 01:53 Clear with Mist and Fog 44 6.7 43 6.1 96 96 Calm 30.27 1025 4 6 0.00 0.00
2:53 am 02:53 Clear with Mist and Fog 43 6.1 42 5.6 97 97 Calm 30.28 1025 4 6 0.00 0.00
3:35 am 03:35 Clear with Mist and Fog 42 5.6 41 5 96 96 Calm 30.31 1026 2 3 0.00 0.00
3:53 am 03:53 Clear with Mist and Fog 43 6.1 41 5 93 93 Calm 30.29 1026 4 6 0.00 0.00
4:53 am 04:53 Clear with Mist and Fog 42 5.6 41 5 96 96 Calm 30.29 1026 4 6 0.00 0.00
5:46 am 05:46 Clear with Mist and Fog 42 5.6 41 5 96 96 Calm 30.32 1027 2 2 0.00 0.00
5:53 am 05:53 Clear with Mist and Fog 42 5.6 41 5 96 96 Calm 30.31 1026 1 2 0.00 0.00
6:05 am 06:05 Clear with Mist and Fog 42 5.6 41 5 96 96 Calm 30.33 1027 3 4 0.00 0.00
6:12 am 06:12 Clear with Mist and Fog 43 6.1 41 5 93 93 Calm 30.32 1027 3 5 0.00 0.00
6:53 am 06:53 Clear 41 5 39 3.9 93 93 Calm 30.32 1027 7 11 0.00 0.00
7:53 am 07:53 Sunny 43 6.1 42 5.6 97 97 Calm 30.34 1027 7 11 0.00 0.00
8:53 am 08:53 Sunny 50 10 46 7.8 86 86 Calm 30.35 1028 8 13 0.00 0.00
9:53 am 09:53 Sunny 57 13.9 49 9.4 74 74 Calm 30.35 1028 10 16 0.00 0.00
10:53 am 10:53 Sunny 66 18.9 50 10 56 56 Calm 30.34 1028 10 16 0.00 0.00
11:53 am 11:53 Sunny 73 22.8 50 10 44 44 SSW 3 6 30.33 1027 10 16 0.00 0.00
12:53 pm 12:53 Sunny 75 23.9 51 10.6 43 43 SW 3 6 30.30 1026 10 16 0.00 0.00
1:53 pm 13:53 Sunny 79 26.1 51 10.6 38 38 NW 3 6 30.28 1025 10 16 0.00 0.00
2:53 pm 14:53 Sunny 82 27.8 52 11.1 35 35 VRB 3 6 30.27 1025 10 16 0.00 0.00
3:53 pm 15:53 Sunny 79 26.1 51 10.6 38 38 SE 5 7 30.26 1025 10 16 0.00 0.00
4:53 pm 16:53 Sunny 76 24.4 50 10 40 40 E 7 11 30.26 1025 10 16 0.00 0.00
5:53 pm 17:53 Clear 65 18.3 50 10 59 59 NE 3 6 30.26 1025 10 16 0.00 0.00
6:53 pm 18:53 Clear 60 15.6 51 10.6 72 72 Calm 30.26 1025 10 16 0.00 0.00
7:53 pm 19:53 Clear 54 12.2 49 9.4 83 83 Calm 30.27 1025 10 16 0.00 0.00
8:53 pm 20:53 Clear 53 11.7 49 9.4 86 86 Calm 30.26 1025 10 16 0.00 0.00
9:53 pm 21:53 Clear 50 10 47 8.3 89 89 Calm 30.27 1025 10 16 0.00 0.00
10:53 pm 22:53 Clear 49 9.4 47 8.3 93 93 Calm 30.27 1025 9 14 0.00 0.00
11:53 pm 23:53 Clear 48 8.9 45 7.2 89 89 Calm 30.26 1025 9 14 0.00 0.00

Powered by AerisWeather